Terug naar catalogus

STARLINK-38276

ActiefCommunicatieSSO
NORAD 100390·PAYLOAD·🇺🇸 United States

Gelanceerd Aug 19, 2026 vanaf Vandenberg Space Force Base

Loading…

Volgende Passages (komende 24 uur)

TLE

VersSource: Space-Track

Epoch: Sep 13, 2026, 14:09 UTC

1 A0390U 26190V   26256.58984777 -.00360649  00000-0 -27408-2 0  9999
2 A0390  97.2843 110.5429 0001167  91.8771 268.2627 15.73243400  5284

Volg STARLINK-38276 in realtime met AllMySat

Download on the App Store